Location: *
(50.8512°N, 5.6907°E)
Time: 13:45:04
(UTC+00:00)

Terra - Pass Details

Date: 09 April 2020
Orbit: 701 x 703 km, 98.2° (Epoch: 03 June)

Event Time Altitude Azimuth Distance (km) Brightness Sun altitude
Exits shadow 22:08:19 40° 265° (W) 1,040 2.7 -28.0°
Drops below altitude 10° 22:12:45 10° 333° (NNW) 2,184 5.3 -28.3°
Sets 22:15:09 0° 340° (NNW) 3,108 6.4 -28.4°
